STARLINK-35973, 66632

Orbit data source: Space-Track

STARLINK-35973, 66632 is a payload satellite owned by SpaceX/Seattle (US) in LEO that was launched on Sun, 23 Nov 2025 UTC via an FALCON 9 launch vehicle from the Air Force Western Test Range (AFWTR). Payload-class satellites include a variety of spacecraft equipped with specific instruments for various scientific and technological missions. These include communications satellites like Starlink; space stations such as the ISS; scientific satellites like the Hubble; Earth observation satellites from companies like Planet Labs, Umbra, and HawkEye 360; GPS; miniature CubeSats for education and research; and military/defense satellites.

Loading next visibility...
Identifier
66632, 2025-271R
Orbit
LEO
Country
Flag of USUS
Related business
Manufacturer
SpaceX/Seattle
Mission
Operational Commercial Communications
Bus & Motor
STARLINK V2MO, Unknown motor
Mass
575 kg wet, ~530 kg dry
Launch date (UTC)
2025-11-23 (5 months ago)
Launch vehicle
FALCON 9
Launch site
Air Force Western Test Range (AFWTR)
Object type
Payload
Rocket body
Debris
Shape & HBR
Box + 2 Pan, 17.7 m
Radar Cross Section
36.964 m²

Expand to show TLE details & history
Last TLE update: 7 hours ago

TLE from 7 hours ago
0 STARLINK-35973
1 66632U 25271R   26128.25002315  .00047630  00000-0  14131-2 0  9999
2 66632  53.1595 222.2379 0001134  84.4767 157.6016 15.34373361  5923
Epoch: 2026-05-08T06:00Z
TLE epoch observation values (Epoch: 2026-05-08T06:00:02.000Z)
Latitude
-45.19666°
Longitude
134.75195°
Altitude
478.808 km
Speed
7.626 km/s
True Right ascension
06h 03m 22s
True Declination
-45° 01' 04"
Sunlit
Object was in daylight at epoch
Visualization orbit readout
Latitude
Unknown
Longitude
Unknown
Altitude
Unknown
Speed
Unknown
Apparent Right ascension
Unknown
Apparent Declination
Unknown
Sunlit
N/A
Visualization observer readout
Local Sidereal Time
20:51:27
Azimuth
Unknown
Elevation
Unknown
Doppler factor
Unknown
Orbital elements
Apogee altitude
463.815 km
Perigee altitude
462.264 km
Semi-major axis
6,841.176 km
Eccentricity
0.00011
Inclination
53.1595°
RAAN
222.2379°
Arg. of periapsis
84.4767°
True anomaly
157.60655°
Mean anomaly
157.6016°
Eccentric anomaly
157.60408°
Mean motion
3.83572 °/min
Orbital period
93.85 mins
BSTAR
0.0014131
Loading maneuver chart data...
Computing Atmospheric mass density...
Loading historical data...
Loading historical data...
Loading historical data...
Loading historical data...
Loading historical data...
Loading historical data...
Loading historical data...

Documentation

Showing up to 5 results
|